Location: Ferchesar
(52.6477°N, 12.4298°E)
Time: 16:23:29
(UTC+01:00)

Vanguard 3 - Pass Details

Date: 08 December 2021
Orbit: 508 x 3260 km, 33.3° (Epoch: 22 January)

Event Time Altitude Azimuth Distance (km) Brightness Sun altitude
Rises 02:29:38 0° 221° (SW) 6,617 - -49.0°
Reaches altitude 10° 02:34:26 10° 213° (SSW) 5,863 - -48.4°
Exits shadow 02:47:32 32° 170° (S) 4,573 10.6 -46.6°
Maximum altitude 02:50:04 33° 158° (SSE) 4,523 10.7 -46.3°
Drops below altitude 10° 03:05:15 10° 104° (ESE) 5,726 11.9 -44.2°
Sets 03:09:49 0° 96° (E) 6,453 12.4 -43.6°
